JA1RBY-13 Weather Reports


Display with metric or nautical units.
time (UTC)temp
F
wind
direction
speed
MPH
gust
MPH
rain 1hr
in
rain 24hr
in
rain mn
in
humidity
%
barometer
mb
20260502130637 63 0 0.0 3.0 0.00 0.00 0.00 52 1012.4
20260502123635 63 264 0.0 0.0 0.00 0.00 0.00 49 1012.6
20260502122137 64 250 0.0 0.0 0.00 0.00 0.00 48 1011.9
20260502120637 65 250 0.0 0.0 0.00 0.00 0.00 47 1011.8
20260502115137 65 250 0.0 0.0 0.00 0.00 0.00 45 1011.6
20260502113637 66 250 0.0 0.0 0.00 0.00 0.00 43 1011.4
20260502112136 66 250 0.0 0.0 0.00 0.00 0.00 41 1011.1
20260502110636 67 250 0.0 0.0 0.00 0.00 0.00 40 1010.7
20260502103637 69 250 0.0 0.0 0.00 0.00 0.00 35 1010.4
20260502102137 69 250 0.0 0.0 0.00 0.00 0.00 33 1010.2
20260502090636 74 236 3.0 5.0 0.00 0.00 0.00 24 1009.4
20260502065136 77 207 1.0 3.0 0.00 0.00 0.00 27 1007.6
20260502062137 77 227 3.0 5.0 0.00 0.00 0.00 28 1007.2
20260502055137 78 169 5.0 10.0 0.00 0.00 0.00 26 1007.0
20260502053636 78 186 7.0 10.0 0.00 0.00 0.00 25 1006.8
20260502052136 78 240 9.0 12.0 0.00 0.00 0.00 25 1006.8
20260502050636 77 219 7.0 12.0 0.00 0.00 0.00 29 1006.8
20260502045136 78 198 8.0 13.0 0.00 0.00 0.00 30 1006.4
20260502042136 78 232 7.0 9.0 0.00 0.00 0.00 34 1006.2
20260502040636 78 180 6.0 9.0 0.00 0.00 0.00 35 1006.2
20260502035136 78 223 4.0 10.0 0.00 0.01 0.00 32 1006.3
20260502033637 78 224 8.0 14.0 0.00 0.03 0.00 34 1006.1
20260502030636 80 194 6.0 10.0 0.00 0.05 0.00 25 1005.6
20260502025136 80 234 6.0 13.0 0.00 0.05 0.00 32 1005.6
20260502023636 81 164 7.0 10.0 0.00 0.07 0.00 29 1005.3
20260502022136 81 149 2.0 3.0 0.00 0.12 0.00 27 1005.1
20260502015137 78 141 4.0 6.0 0.00 0.13 0.00 30 1005.0
20260502013637 78 147 4.0 8.0 0.00 0.13 0.00 30 1004.7
20260502012136 79 175 4.0 4.0 0.00 0.24 0.00 31 1004.6
20260502005136 77 154 2.0 2.0 0.00 0.26 0.00 33 1004.3
20260502003637 77 227 4.0 6.0 0.00 0.28 0.00 34 1004.4
20260502000636 75 225 3.0 5.0 0.00 0.39 0.00 39 1004.3
20260501235139 73 233 5.0 7.0 0.00 0.43 0.00 41 1004.2
20260501233636 72 204 3.0 6.0 0.00 0.46 0.00 46 1004.2
20260501225136 70 214 3.0 4.0 0.00 0.56 0.00 47 1003.8
20260501223636 69 250 4.0 8.0 0.00 0.59 0.00 48 1003.6
20260501220636 64 221 0.0 0.0 0.00 0.61 0.00 53 1003.1
20260501215138 62 229 0.0 0.0 0.00 0.65 0.00 55 1003.1
20260501210636 57 13 0.0 0.0 0.00 0.76 0.00 62 1001.4
20260501205138 55 47 1.0 2.0 0.00 0.76 0.00 64 1001.0
20260501202137 53 31 2.0 4.0 0.00 0.76 0.00 65 1000.4
20260501200637 52 4 1.0 3.0 0.00 0.78 0.00 67 1000.4
20260501195137 52 13 0.0 0.0 0.00 0.81 0.00 66 999.8
20260501193637 52 38 2.0 2.0 0.00 0.86 0.00 66 999.2
20260501190636 54 240 0.0 0.0 0.00 0.92 0.00 63 998.8
20260501185136 55 238 2.0 3.0 0.00 0.95 0.00 63 998.2
20260501183637 55 186 2.0 3.0 0.00 0.98 0.00 63 997.7
20260501182136 56 230 3.0 5.0 0.00 0.98 0.00 61 997.3
20260501180638 56 263 5.0 7.0 0.00 0.99 0.00 60 996.9
20260501175138 57 265 7.0 9.0 0.00 1.00 0.00 59 996.5
20260501172137 57 260 11.0 19.0 0.00 1.02 0.00 59 996.2
20260501170636 57 265 9.0 13.0 0.00 1.02 0.00 60 996.4
20260501165136 57 266 10.0 17.0 0.00 1.03 0.00 60 996.3
20260501163638 57 263 10.0 14.0 0.00 1.04 0.00 59 996.2
20260501162138 57 263 13.0 21.0 0.00 1.06 0.00 59 996.1
20260501160637 57 264 9.0 13.0 0.00 1.06 0.00 60 996.1